SCP
0 0 0 0 0 0 0 0 0 0 0 0 0 0 0 0 0 0 0 0 -0 -0 0 -0 0 0 0 0 0 0 0 0 0 0 0 0 0 0 0 0 0 0 0 0 0 0 0
0 0 0 0 0 0 0 0 0 0 0 0 0 0 0 0 0 0 0 -0 -0 0 -0 -0 -0 0 0 0 0 0 0 0 0 0 0 0 0 0 0 0 0 0 0 0 0 0 0
0 0 0 0 0 0 0 0 0 0 0 0 0 0 0 0 0 0 -0 -0 0 0 -0 -0 -0 -0 0 0 0 0 0 0 0 0 0 0 0 0 0 0 0 0 0 0 0 0 0
0 0 0 0 0 0 0 0 0 0 0 0 0 0 0 0 0 0 -0 -0 -0 0 0 0 -0 0 0 0 0 0 0 0 0 0 0 0 0 0 0 0 0 0 0 0 0 0 0
0 0 0 0 0 0 0 0 0 0 0 0 0 0 0 0 -0 0 0 -0 -0 0 0 0 -0 0 0 0 0 0 0 0 0 0 0 0 0 0 0 0 0 0 0 0 0 0 0
0 0 0 0 0 0 0 0 0 0 0 0 0 0 0 0 -0 0 0 0 0 0 0 0 0 0 0 0 0 0 0 0 0 0 0 0 0 0 0 0 0 0 0 0 0 0 0
0 0 0 0 0 0 0 0 0 0 0 0 0 0 0 0 -0 -0 0 0 0 0 0 0 0 0 0 0 0 0 0 0 0 0 0 0 0 0 0 0 0 0 0 0 0 0 0
0 0 0 0 0 0 0 0 0 0 0 0 0 0 0 0 0 -0 0 0 0 0 0 0 0 0 0 0 0 -0 0 0 0 0 0 0 0 0 0 0 0 0 0 0 0 0 0
0 0 0 0 0 0 0 0 0 0 0 0 0 0 0 0 0 0 0 0 0 0 0 0 0 0 0 0 0 0 0 0 0 0 0 0 0 0 0 0 0 0 0 0 0 0 0
0 0 0 0 0 0 0 0 0 0 0 0 0 0 0 0 0 0 0 0 0 0 0 0 0 0 0 0 0 0 0 0 0 0 0 0 0 0 0 0 0 0 0 0 0 0 0
0 0 0 0 0 0 0 0 0 0 0 0 0 0 0 0 0 0 0 0 0 0 0 0 0 0 0 0 0 0 0 0 0 0 0 0 0 0 0 0 0 0 0 0 0 0 0
0 0 0 0 0 0 0 0 0 0 0 0 -0 -0 0 0 0 0 0 0 0 0 0 0 0 0 0 0 0 0 0 0 0 0 0 0 0 0 0 0 0 0 0 0 0 0 0
0 0 0 0 0 0 0 0 0 -0 -0 0 -0 0 0 0 0 0 0 0 0 -0 0 0 0 0 0 0 0 0 0 0 0 0 0 0 0 0 0 0 0 0 0 0 0 0 0
0 0 0 0 0 0 0 -0 0 0 -0 0 0 0 0 0 0 0 0 0 0 -0 -0 0 0 0 0 0 0 0 0 0 0 0 0 0 0 0 0 0 0 0 0 0 0 0 0
0 0 0 0 0 0 0 0 -0 0 0 -0 0 0 0 0 0 0 0 0 0 0 0 0 0 0 0 0 0 0 0 0 0 0 0 0 0 0 0 0 0 0 0 0 0 0 0
0 0 0 0 0 0 0 0 -0 0 0 -0 0 0 0 0 0 0 0 -0 0 -0 0 0 0 0 -0 0 0 -0 0 0 0 0 0 0 0 0 0 0 0 0 0 0 0 0 0
0 0 0 0 0 0 0 0 -0 -0 0 0 0 0 0 0 0 0 0 0 -0 0 -0 0 0 0 0 0 0 -0 0 0 0 0 0 0 0 0 0 0 0 0 0 0 0 0 0
0 0 0 0 0 0 0 0 -0 -0 0 0 0 0 0 0 0 0 0 0 0 -0 -0 0 -0 0 0 0 0 0 0 0 0 0 0 0 0 0 0 0 0 0 0 0 0 0 0
0 0 0 0 0 0 0 -0 -0 -0 0 0 0 0 0 0 0 0 0 0 0 0 0 0 0 0 0 0 0 0 0 0 0 0 0 0 0 0 0 0 0 0 0 0 0 0 0
0 0 0 0 0 0 0 -0 -0 0 0 0 0 0 0 0 0 0 0 0 0 0 0 0 0 0 0 0 0 0 0 0 0 0 0 0 0 0 0 0 0 0 0 0 0 0 0
0 0 0 0 0 0 -0 -0 0 0 0 0 0 0 0 0 0 0 0 0 0 0 0 0 0 0 0 0 0 0 0 0 0 0 0 0 0 0 0 0 0 0 0 0 0 0 0
0 0 0 0 0 0 -0 0 0 0 0 0 0 0 0 0 0 0 0 0 0 0 0 0 0 0 0 0 0 0 0 0 0 0 0 0 0 0 0 0 0 0 0 0 0 0 0
0 0 0 0 0 0 0 0 0 0 0 0 0 0 0 0 0 0 0 0 0 0 0 0 0 0 0 0 0 0 0 0 0 0 0 0 0 0 0 0 0 0 0 0 0 0 0
0 0 0 0 0 0 0 0 0 0 0 -0 0 0 0 0 0 0 0 0 0 0 0 0 0 0 0 0 0 0 0 0 0 0 0 0 0 0 0 0 0 0 0 0 -0 0 0
0 0 0 0 0 0 0 0 0 0 0 0 0 0 0 0 0 0 0 0 0 0 0 0 0 0 0 0 0 0 0 0 0 0 0 0 0 0 0 0 -0 -0 0 0 0 0 0
0 0 0 0 0 0 0 0 0 0 0 0 0 0 0 0 0 0 0 0 0 0 0 0 0 0 0 0 0 0 0 0 0 0 0 0 0 0 0 0 0 0 0 0 0 0 0
0 0 0 0 0 0 0 0 0 0 0 0 0 0 0 0 0 0 0 0 0 0 0 0 0 0 0 0 0 0 0 0 0 0 0 0 0 0 0 0 0 0 0 0 0 0 0
0 0 0 0 0 0 0 0 0 0 0 0 0 0 0 0 0 0 0 0 0 0 0 0 0 0 0 0 0 0 0 0 0 0 0 0 0 0 0 0 0 0 0 0 0 0 0
0 0 0 0 0 0 0 0 0 0 0 0 0 0 0 0 0 0 0 0 0 0 0 0 0 0 0 0 0 0 0 0 0 0 0 0 0 0 0 0 0 0 0 0 0 0 0
Wind_Speed_500mb
43 44 43 43 40 41 37 35 35 35 45 49 56 58 49 38 25 10 6 3 3 4 6 8 7 7 13 8 37 12 18 28 57 57 54 43 52 37 11 12 24 6 31 30 33 38 50
42 45 42 44 42 41 37 37 36 34 41 49 54 56 42 34 21 13 9 5 4 2 2 8 6 5 12 17 13 27 21 40 74 68 60 50 40 35 25 14 23 20 6 29 19 32 36
42 45 46 44 42 41 42 39 35 33 40 45 48 51 35 29 18 11 8 9 3 1 6 6 8 5 15 30 13 13 16 35 63 64 64 58 21 32 27 9 26 15 14 11 17 24 18
40 46 46 50 43 42 40 43 38 36 35 40 41 46 33 23 19 8 8 10 9 10 14 7 5 8 12 25 20 15 10 26 51 55 61 57 35 40 8 11 15 9 11 10 9 24 24
36 43 46 50 45 42 42 41 41 39 36 34 38 37 29 23 18 18 12 9 11 17 8 8 5 5 14 10 9 9 1 7 39 57 51 58 38 20 12 14 8 6 13 13 13 28 11
33 39 46 47 46 45 46 45 42 39 40 35 30 31 29 19 11 14 11 7 13 16 14 9 8 8 9 13 11 4 10 6 22 57 46 36 17 9 7 11 32 28 11 14 18 26 11
30 35 41 45 44 45 46 48 48 47 42 38 27 24 22 16 9 8 10 4 3 4 8 2 11 10 19 21 7 12 9 20 26 47 12 38 13 28 18 8 12 16 13 11 6 8 13
29 33 36 42 43 45 47 49 49 50 48 44 35 19 15 13 8 8 8 9 10 5 7 11 14 12 6 7 4 10 26 13 13 29 26 14 17 9 16 5 8 18 16 11 4 6 16
28 29 32 38 43 43 48 48 50 50 49 48 40 22 11 7 6 4 8 6 10 4 1 6 11 11 8 6 10 7 10 8 27 21 34 19 14 16 16 5 8 4 11 8 8 6 5
27 29 32 35 40 46 45 48 49 52 51 49 39 23 9 3 3 2 5 3 1 11 5 14 12 12 11 4 11 9 6 12 8 27 20 11 13 15 15 8 7 5 11 10 13 10 7
25 28 34 37 37 43 46 51 51 51 52 48 38 19 11 7 6 6 7 3 7 1 11 11 9 19 18 9 7 13 17 23 14 18 7 3 8 18 9 6 10 10 5 14 8 9 7
24 26 32 39 44 41 45 49 55 53 49 45 34 14 10 5 4 5 6 7 6 10 2 1 10 3 7 7 4 9 14 23 6 15 16 8 7 8 3 5 5 8 12 16 11 6 2
21 25 33 40 43 49 52 48 52 56 46 41 27 6 7 7 3 5 10 5 8 11 6 9 6 8 13 6 7 7 1 5 6 9 8 8 7 4 3 9 8 9 10 5 3 3 15
20 24 30 41 45 51 58 58 54 52 42 34 17 5 5 3 2 3 7 6 15 8 6 1 3 9 5 8 9 5 11 5 5 9 7 9 5 2 5 5 9 6 8 9 13 9 8
20 23 29 38 47 52 56 55 53 52 38 29 5 9 1 7 8 9 4 9 14 11 8 8 4 4 1 4 10 5 3 12 8 13 11 7 3 1 3 4 3 7 10 7 9 4 6
20 21 30 38 46 51 50 50 53 53 37 21 4 9 2 7 7 5 5 6 5 7 3 6 5 11 6 10 9 9 9 9 9 10 12 12 8 5 6 5 3 2 3 3 4 6 8
16 21 30 38 45 49 46 48 53 52 38 18 9 6 1 6 7 2 4 9 6 12 6 5 4 3 7 9 10 10 16 8 12 14 15 12 7 9 11 14 20 9 7 8 5 8 8
16 22 30 36 42 43 43 46 49 50 39 12 6 5 2 4 4 5 2 7 3 5 5 5 3 4 1 3 4 4 11 6 16 22 12 12 9 7 5 5 9 7 12 11 7 8 4
16 23 28 35 39 42 42 44 44 44 35 22 6 6 4 7 2 2 6 5 4 2 4 1 4 1 4 4 3 4 4 3 7 9 12 10 1 6 4 2 5 12 12 15 2 5 12
15 20 26 31 35 40 42 41 41 38 24 12 5 4 2 8 10 7 5 5 5 6 4 2 3 3 2 2 5 5 3 3 6 5 6 10 7 10 12 8 9 10 19 26 14 7 7
13 15 21 26 32 38 41 41 39 36 20 9 8 5 6 4 3 6 8 1 6 5 6 3 2 5 6 6 4 5 3 3 4 2 3 7 8 5 7 4 7 8 13 28 33 29 15
9 12 16 22 31 33 38 36 38 37 20 24 8 5 7 9 23 10 5 4 3 2 7 7 4 2 7 7 11 13 10 6 8 2 4 4 1 4 7 7 4 7 12 18 29 30 34
7 8 11 21 31 28 32 30 38 40 31 17 11 7 2 6 9 3 8 9 9 5 2 7 4 2 9 7 6 3 18 16 10 14 9 6 9 5 7 8 9 15 24 27 17 19 27
8 6 8 18 27 27 28 27 29 37 37 34 27 10 4 3 6 4 9 11 10 12 5 7 3 2 3 4 7 9 13 12 17 6 13 9 9 5 4 5 3 13 4 14 32 28 26
11 5 6 16 23 19 20 25 31 27 29 27 33 14 5 1 6 8 20 8 17 16 5 6 2 3 3 5 6 5 5 5 6 10 8 8 7 4 5 7 14 10 4 10 12 13 29
13 6 3 14 14 14 17 20 22 26 26 23 28 30 10 4 2 7 9 12 6 8 10 3 2 1 2 5 4 7 8 10 7 6 8 5 4 8 5 6 9 8 6 8 5 10 3
17 9 1 7 9 13 13 15 18 22 23 23 20 24 11 6 4 14 3 6 15 10 6 10 14 4 2 4 2 5 6 5 7 9 8 5 3 10 12 6 13 14 10 3 5 9 20
21 11 4 5 8 14 13 14 16 21 21 19 14 16 14 4 22 6 4 9 18 5 5 18 6 5 4 4 6 7 6 8 5 5 12 12 10 7 8 7 13 6 4 7 9 5 9
19 14 3 3 6 12 12 14 16 21 19 21 15 14 17 10 11 35 24 13 21 32 23 12 12 10 7 1 0 1 4 1 7 5 4 5 13 8 14 10 11 13 9 13 12 7 6
Wind_Direction_500mb
360 360 359 359 3 354 355 350 353 359 356 348 344 350 349 349 355 13 18 345 353 354 328 333 323 266 196 224 238 156 252 229 200 205 189 178 179 180 173 164 183 141 174 187 192 187 198
357 358 356 357 358 353 354 352 353 358 353 349 348 355 1 13 28 44 68 68 328 345 323 19 356 254 202 244 288 232 299 187 184 196 188 178 182 176 176 172 170 178 129 115 159 173 155
355 356 356 357 357 1 352 354 352 354 353 351 354 2 9 23 23 38 36 2 10 296 349 339 2 245 228 244 240 241 58 183 182 187 184 183 179 182 161 139 175 175 149 162 167 199 198
352 354 355 357 357 359 359 353 354 352 353 353 1 4 5 14 6 15 18 22 22 330 310 321 301 257 260 355 230 268 29 177 192 191 193 181 169 188 168 163 166 125 113 158 234 166 203
351 351 353 359 359 360 359 360 354 352 349 352 357 1 5 8 38 52 57 55 52 23 36 68 66 293 283 17 198 310 28 147 180 185 184 179 186 193 220 130 103 193 159 179 178 198 160
349 351 356 358 359 1 5 4 359 355 349 349 352 356 8 6 41 32 25 20 68 71 68 54 9 326 353 322 353 157 258 206 170 181 181 167 177 161 164 167 185 190 161 193 176 199 188
346 351 354 354 360 3 5 8 4 5 355 346 351 347 360 3 343 29 21 127 120 76 47 310 314 284 316 349 103 138 252 245 153 172 154 176 166 196 172 122 146 116 113 152 193 195 184
344 349 352 349 354 358 9 8 2 2 2 352 349 335 345 353 343 354 42 73 86 55 342 6 297 292 327 2 90 94 170 233 165 146 137 149 195 168 128 189 117 149 175 179 137 219 192
340 344 347 346 348 355 359 359 0 358 357 355 348 332 317 9 10 19 42 88 99 61 109 359 16 10 3 47 43 90 270 48 133 163 153 148 158 145 159 178 143 91 151 181 153 90 76
335 339 340 344 345 349 349 351 355 353 352 350 346 335 314 248 231 325 318 131 87 353 79 1 356 19 9 53 46 50 277 116 186 135 145 96 158 143 155 185 123 143 209 190 179 139 188
330 334 334 338 343 347 345 347 348 349 346 346 343 335 317 289 229 237 281 251 288 279 66 351 12 346 352 59 128 349 48 82 80 102 105 109 113 145 147 159 141 219 196 159 112 100 107
324 329 331 333 338 345 343 343 341 341 343 344 338 327 311 294 272 230 274 276 326 41 341 350 168 249 1 288 87 54 46 62 55 78 57 59 39 56 106 89 104 142 87 47 55 73 294
318 325 330 331 336 339 342 343 340 336 342 339 339 296 319 291 305 247 268 226 40 66 322 320 318 147 156 123 85 40 42 50 112 94 48 40 11 40 347 87 18 80 94 43 354 317 232
311 321 331 331 335 341 342 344 344 341 344 340 342 193 321 339 340 84 151 64 69 232 189 261 237 308 94 147 52 46 127 109 8 82 133 151 173 193 338 94 158 123 98 166 189 204 238
310 324 332 332 334 341 342 343 347 345 347 341 345 177 265 14 93 146 304 50 175 196 214 178 142 227 132 144 121 139 281 183 185 190 131 153 128 203 334 114 179 175 192 205 114 79 64
312 325 332 335 335 342 346 349 351 349 353 349 236 173 228 358 139 156 60 189 165 203 263 164 195 190 159 164 159 159 184 185 193 182 154 188 124 211 142 106 3 152 321 179 355 152 250
306 321 330 334 340 344 352 354 353 353 0 1 140 132 168 337 168 297 140 227 224 225 221 198 201 218 169 172 158 181 190 191 180 181 179 154 122 144 161 206 183 174 188 224 124 157 188
302 318 328 337 342 348 355 355 355 354 3 18 116 64 198 150 281 209 165 206 254 187 183 272 251 11 100 172 172 106 159 164 178 151 181 179 135 151 202 213 225 213 207 198 181 217 228
298 316 331 340 346 353 355 356 357 356 359 12 81 95 173 217 266 250 291 284 294 217 211 161 207 208 34 23 69 84 102 73 83 139 164 175 39 91 54 195 221 218 195 201 149 46 207
294 319 333 345 351 352 355 357 1 359 3 25 67 80 108 238 281 296 197 245 281 263 262 205 202 89 107 106 58 148 119 24 43 84 114 132 144 165 187 199 138 203 199 197 176 188 194
285 314 338 348 353 353 353 2 9 8 20 84 59 45 27 278 229 334 311 185 182 269 264 203 269 217 153 181 149 152 129 66 14 94 95 116 180 132 247 197 158 212 190 193 213 221 211
270 313 340 352 353 353 355 6 14 23 37 63 100 61 19 293 311 302 346 243 215 232 175 269 214 319 215 202 193 197 141 183 204 124 122 27 143 83 322 279 258 272 254 213 216 228 245
260 302 344 356 354 1 0 12 21 28 39 64 71 94 160 287 336 35 356 340 2 355 264 257 209 301 128 176 140 66 180 188 171 161 167 119 126 82 275 354 350 298 228 215 216 213 215
240 259 357 355 359 7 20 29 26 30 38 47 42 62 77 299 43 31 349 317 353 319 298 308 322 207 86 191 146 102 87 94 142 159 150 138 118 106 224 22 317 242 199 212 220 233 217
215 215 358 356 8 18 20 27 31 28 29 38 39 39 50 67 332 344 346 325 326 324 275 261 278 121 80 116 67 72 356 29 201 177 161 158 170 137 147 200 287 290 197 170 174 266 223
197 185 341 4 20 21 14 11 17 28 32 33 33 28 19 33 16 347 324 326 329 326 329 300 296 264 157 87 192 176 190 204 192 196 134 184 164 133 209 251 252 256 301 227 157 289 13
180 186 8 3 12 6 359 10 5 18 17 17 28 29 22 348 251 343 30 316 331 331 289 306 330 348 121 101 130 219 237 199 184 198 167 151 158 177 226 245 283 255 257 125 89 254 323
180 185 215 353 357 357 351 356 351 352 359 9 52 40 24 287 290 179 351 311 319 329 306 344 300 336 41 140 152 232 174 231 156 196 170 167 176 191 197 218 271 236 93 180 236 291 331
181 179 213 355 346 353 355 353 350 352 9 24 54 20 339 310 279 302 299 290 261 255 271 309 321 323 358 242 152 352 255 147 166 236 62 196 187 187 178 213 249 241 238 273 255 255 218
Wind_Speed_850mb
43 44 43 43 40 41 37 35 35 35 45 49 56 58 49 38 25 10 6 3 3 4 6 8 7 7 13 8 37 12 18 28 57 57 54 43 52 37 11 12 24 6 31 30 33 38 50
42 45 42 44 42 41 37 37 36 34 41 49 54 56 42 34 21 13 9 5 4 2 2 8 6 5 12 17 13 27 21 40 74 68 60 50 40 35 25 14 23 20 6 29 19 32 36
42 45 46 44 42 41 42 39 35 33 40 45 48 51 35 29 18 11 8 9 3 1 6 6 8 5 15 30 13 13 16 35 63 64 64 58 21 32 27 9 26 15 14 11 17 24 18
40 46 46 50 43 42 40 43 38 36 35 40 41 46 33 23 19 8 8 10 9 10 14 7 5 8 12 25 20 15 10 26 51 55 61 57 35 40 8 11 15 9 11 10 9 24 24
36 43 46 50 45 42 42 41 41 39 36 34 38 37 29 23 18 18 12 9 11 17 8 8 5 5 14 10 9 9 1 7 39 57 51 58 38 20 12 14 8 6 13 13 13 28 11
33 39 46 47 46 45 46 45 42 39 40 35 30 31 29 19 11 14 11 7 13 16 14 9 8 8 9 13 11 4 10 6 22 57 46 36 17 9 7 11 32 28 11 14 18 26 11
30 35 41 45 44 45 46 48 48 47 42 38 27 24 22 16 9 8 10 4 3 4 8 2 11 10 19 21 7 12 9 20 26 47 12 38 13 28 18 8 12 16 13 11 6 8 13
29 33 36 42 43 45 47 49 49 50 48 44 35 19 15 13 8 8 8 9 10 5 7 11 14 12 6 7 4 10 26 13 13 29 26 14 17 9 16 5 8 18 16 11 4 6 16
28 29 32 38 43 43 48 48 50 50 49 48 40 22 11 7 6 4 8 6 10 4 1 6 11 11 8 6 10 7 10 8 27 21 34 19 14 16 16 5 8 4 11 8 8 6 5
27 29 32 35 40 46 45 48 49 52 51 49 39 23 9 3 3 2 5 3 1 11 5 14 12 12 11 4 11 9 6 12 8 27 20 11 13 15 15 8 7 5 11 10 13 10 7
25 28 34 37 37 43 46 51 51 51 52 48 38 19 11 7 6 6 7 3 7 1 11 11 9 19 18 9 7 13 17 23 14 18 7 3 8 18 9 6 10 10 5 14 8 9 7
24 26 32 39 44 41 45 49 55 53 49 45 34 14 10 5 4 5 6 7 6 10 2 1 10 3 7 7 4 9 14 23 6 15 16 8 7 8 3 5 5 8 12 16 11 6 2
21 25 33 40 43 49 52 48 52 56 46 41 27 6 7 7 3 5 10 5 8 11 6 9 6 8 13 6 7 7 1 5 6 9 8 8 7 4 3 9 8 9 10 5 3 3 15
20 24 30 41 45 51 58 58 54 52 42 34 17 5 5 3 2 3 7 6 15 8 6 1 3 9 5 8 9 5 11 5 5 9 7 9 5 2 5 5 9 6 8 9 13 9 8
20 23 29 38 47 52 56 55 53 52 38 29 5 9 1 7 8 9 4 9 14 11 8 8 4 4 1 4 10 5 3 12 8 13 11 7 3 1 3 4 3 7 10 7 9 4 6
20 21 30 38 46 51 50 50 53 53 37 21 4 9 2 7 7 5 5 6 5 7 3 6 5 11 6 10 9 9 9 9 9 10 12 12 8 5 6 5 3 2 3 3 4 6 8
16 21 30 38 45 49 46 48 53 52 38 18 9 6 1 6 7 2 4 9 6 12 6 5 4 3 7 9 10 10 16 8 12 14 15 12 7 9 11 14 20 9 7 8 5 8 8
16 22 30 36 42 43 43 46 49 50 39 12 6 5 2 4 4 5 2 7 3 5 5 5 3 4 1 3 4 4 11 6 16 22 12 12 9 7 5 5 9 7 12 11 7 8 4
16 23 28 35 39 42 42 44 44 44 35 22 6 6 4 7 2 2 6 5 4 2 4 1 4 1 4 4 3 4 4 3 7 9 12 10 1 6 4 2 5 12 12 15 2 5 12
15 20 26 31 35 40 42 41 41 38 24 12 5 4 2 8 10 7 5 5 5 6 4 2 3 3 2 2 5 5 3 3 6 5 6 10 7 10 12 8 9 10 19 26 14 7 7
13 15 21 26 32 38 41 41 39 36 20 9 8 5 6 4 3 6 8 1 6 5 6 3 2 5 6 6 4 5 3 3 4 2 3 7 8 5 7 4 7 8 13 28 33 29 15
9 12 16 22 31 33 38 36 38 37 20 24 8 5 7 9 23 10 5 4 3 2 7 7 4 2 7 7 11 13 10 6 8 2 4 4 1 4 7 7 4 7 12 18 29 30 34
7 8 11 21 31 28 32 30 38 40 31 17 11 7 2 6 9 3 8 9 9 5 2 7 4 2 9 7 6 3 18 16 10 14 9 6 9 5 7 8 9 15 24 27 17 19 27
8 6 8 18 27 27 28 27 29 37 37 34 27 10 4 3 6 4 9 11 10 12 5 7 3 2 3 4 7 9 13 12 17 6 13 9 9 5 4 5 3 13 4 14 32 28 26
11 5 6 16 23 19 20 25 31 27 29 27 33 14 5 1 6 8 20 8 17 16 5 6 2 3 3 5 6 5 5 5 6 10 8 8 7 4 5 7 14 10 4 10 12 13 29
13 6 3 14 14 14 17 20 22 26 26 23 28 30 10 4 2 7 9 12 6 8 10 3 2 1 2 5 4 7 8 10 7 6 8 5 4 8 5 6 9 8 6 8 5 10 3
17 9 1 7 9 13 13 15 18 22 23 23 20 24 11 6 4 14 3 6 15 10 6 10 14 4 2 4 2 5 6 5 7 9 8 5 3 10 12 6 13 14 10 3 5 9 20
21 11 4 5 8 14 13 14 16 21 21 19 14 16 14 4 22 6 4 9 18 5 5 18 6 5 4 4 6 7 6 8 5 5 12 12 10 7 8 7 13 6 4 7 9 5 9
19 14 3 3 6 12 12 14 16 21 19 21 15 14 17 10 11 35 24 13 21 32 23 12 12 10 7 1 0 1 4 1 7 5 4 5 13 8 14 10 11 13 9 13 12 7 6
Wind_Direction_850mb
360 360 359 359 3 354 355 350 353 359 356 348 344 350 349 349 355 13 18 345 353 354 328 333 323 266 196 224 238 156 252 229 200 205 189 178 179 180 173 164 183 141 174 187 192 187 198
357 358 356 357 358 353 354 352 353 358 353 349 348 355 1 13 28 44 68 68 328 345 323 19 356 254 202 244 288 232 299 187 184 196 188 178 182 176 176 172 170 178 129 115 159 173 155
355 356 356 357 357 1 352 354 352 354 353 351 354 2 9 23 23 38 36 2 10 296 349 339 2 245 228 244 240 241 58 183 182 187 184 183 179 182 161 139 175 175 149 162 167 199 198
352 354 355 357 357 359 359 353 354 352 353 353 1 4 5 14 6 15 18 22 22 330 310 321 301 257 260 355 230 268 29 177 192 191 193 181 169 188 168 163 166 125 113 158 234 166 203
351 351 353 359 359 360 359 360 354 352 349 352 357 1 5 8 38 52 57 55 52 23 36 68 66 293 283 17 198 310 28 147 180 185 184 179 186 193 220 130 103 193 159 179 178 198 160
349 351 356 358 359 1 5 4 359 355 349 349 352 356 8 6 41 32 25 20 68 71 68 54 9 326 353 322 353 157 258 206 170 181 181 167 177 161 164 167 185 190 161 193 176 199 188
346 351 354 354 360 3 5 8 4 5 355 346 351 347 360 3 343 29 21 127 120 76 47 310 314 284 316 349 103 138 252 245 153 172 154 176 166 196 172 122 146 116 113 152 193 195 184
344 349 352 349 354 358 9 8 2 2 2 352 349 335 345 353 343 354 42 73 86 55 342 6 297 292 327 2 90 94 170 233 165 146 137 149 195 168 128 189 117 149 175 179 137 219 192
340 344 347 346 348 355 359 359 0 358 357 355 348 332 317 9 10 19 42 88 99 61 109 359 16 10 3 47 43 90 270 48 133 163 153 148 158 145 159 178 143 91 151 181 153 90 76
335 339 340 344 345 349 349 351 355 353 352 350 346 335 314 248 231 325 318 131 87 353 79 1 356 19 9 53 46 50 277 116 186 135 145 96 158 143 155 185 123 143 209 190 179 139 188
330 334 334 338 343 347 345 347 348 349 346 346 343 335 317 289 229 237 281 251 288 279 66 351 12 346 352 59 128 349 48 82 80 102 105 109 113 145 147 159 141 219 196 159 112 100 107
324 329 331 333 338 345 343 343 341 341 343 344 338 327 311 294 272 230 274 276 326 41 341 350 168 249 1 288 87 54 46 62 55 78 57 59 39 56 106 89 104 142 87 47 55 73 294
318 325 330 331 336 339 342 343 340 336 342 339 339 296 319 291 305 247 268 226 40 66 322 320 318 147 156 123 85 40 42 50 112 94 48 40 11 40 347 87 18 80 94 43 354 317 232
311 321 331 331 335 341 342 344 344 341 344 340 342 193 321 339 340 84 151 64 69 232 189 261 237 308 94 147 52 46 127 109 8 82 133 151 173 193 338 94 158 123 98 166 189 204 238
310 324 332 332 334 341 342 343 347 345 347 341 345 177 265 14 93 146 304 50 175 196 214 178 142 227 132 144 121 139 281 183 185 190 131 153 128 203 334 114 179 175 192 205 114 79 64
312 325 332 335 335 342 346 349 351 349 353 349 236 173 228 358 139 156 60 189 165 203 263 164 195 190 159 164 159 159 184 185 193 182 154 188 124 211 142 106 3 152 321 179 355 152 250
306 321 330 334 340 344 352 354 353 353 0 1 140 132 168 337 168 297 140 227 224 225 221 198 201 218 169 172 158 181 190 191 180 181 179 154 122 144 161 206 183 174 188 224 124 157 188
302 318 328 337 342 348 355 355 355 354 3 18 116 64 198 150 281 209 165 206 254 187 183 272 251 11 100 172 172 106 159 164 178 151 181 179 135 151 202 213 225 213 207 198 181 217 228
298 316 331 340 346 353 355 356 357 356 359 12 81 95 173 217 266 250 291 284 294 217 211 161 207 208 34 23 69 84 102 73 83 139 164 175 39 91 54 195 221 218 195 201 149 46 207
294 319 333 345 351 352 355 357 1 359 3 25 67 80 108 238 281 296 197 245 281 263 262 205 202 89 107 106 58 148 119 24 43 84 114 132 144 165 187 199 138 203 199 197 176 188 194
285 314 338 348 353 353 353 2 9 8 20 84 59 45 27 278 229 334 311 185 182 269 264 203 269 217 153 181 149 152 129 66 14 94 95 116 180 132 247 197 158 212 190 193 213 221 211
270 313 340 352 353 353 355 6 14 23 37 63 100 61 19 293 311 302 346 243 215 232 175 269 214 319 215 202 193 197 141 183 204 124 122 27 143 83 322 279 258 272 254 213 216 228 245
260 302 344 356 354 1 0 12 21 28 39 64 71 94 160 287 336 35 356 340 2 355 264 257 209 301 128 176 140 66 180 188 171 161 167 119 126 82 275 354 350 298 228 215 216 213 215
240 259 357 355 359 7 20 29 26 30 38 47 42 62 77 299 43 31 349 317 353 319 298 308 322 207 86 191 146 102 87 94 142 159 150 138 118 106 224 22 317 242 199 212 220 233 217
215 215 358 356 8 18 20 27 31 28 29 38 39 39 50 67 332 344 346 325 326 324 275 261 278 121 80 116 67 72 356 29 201 177 161 158 170 137 147 200 287 290 197 170 174 266 223
197 185 341 4 20 21 14 11 17 28 32 33 33 28 19 33 16 347 324 326 329 326 329 300 296 264 157 87 192 176 190 204 192 196 134 184 164 133 209 251 252 256 301 227 157 289 13
180 186 8 3 12 6 359 10 5 18 17 17 28 29 22 348 251 343 30 316 331 331 289 306 330 348 121 101 130 219 237 199 184 198 167 151 158 177 226 245 283 255 257 125 89 254 323
180 185 215 353 357 357 351 356 351 352 359 9 52 40 24 287 290 179 351 311 319 329 306 344 300 336 41 140 152 232 174 231 156 196 170 167 176 191 197 218 271 236 93 180 236 291 331
181 179 213 355 346 353 355 353 350 352 9 24 54 20 339 310 279 302 299 290 261 255 271 309 321 323 358 242 152 352 255 147 166 236 62 196 187 187 178 213 249 241 238 273 255 255 218